This is the latest recevied weather packets stored in our database for station/object KE6YLF. If no packets are shown the sender has not sent any weather packets the latest 10 day(s).
| Time | Temp. | Humidity | Pressure | Rain* | Wind** | Luminosity | Snow |
|---|---|---|---|---|---|---|---|
| 1788139924 | 36.11° C | 37% | 1073.3 hPa | 0 mm | - | - | - |
| 1788139619 | 36.11° C | 38% | 1073.2 hPa | 0 mm | - | - | - |
| 1788139315 | 36.67° C | 38% | 1073 hPa | 0 mm | - | - | - |
| 1788139014 | 36.67° C | 38% | 1072.9 hPa | 0 mm | - | - | - |
| 1788138710 | 36.67° C | 39% | 1072.9 hPa | 0 mm | - | - | - |
| 1788138405 | 37.22° C | 38% | 1072.7 hPa | 0 mm | - | - | - |
| 1788138101 | 37.22° C | 38% | 1072.9 hPa | 0 mm | - | - | - |
| 1788137800 | 37.22° C | 39% | 1072.5 hPa | 0 mm | - | - | - |
| 1788137496 | 37.22° C | 39% | 1072.9 hPa | 0 mm | - | - | - |
| 1788137191 | 37.78° C | 39% | 1072.7 hPa | 0 mm | - | - | - |
| 1788136887 | 37.78° C | 38% | 1072.7 hPa | 0 mm | - | - | - |
| 1788136583 | 37.78° C | 38% | 1072.6 hPa | 0 mm | - | - | - |
| 1788136278 | 37.78° C | 39% | 1072.6 hPa | 0 mm | - | - | - |
| 1788135977 | 38.33° C | 38% | 1073 hPa | 0 mm | - | - | - |
| 1788135672 | 37.78° C | 38% | 1073.1 hPa | 0 mm | - | - | - |
| 1788135368 | 38.33° C | 38% | 1073.1 hPa | 0 mm | - | - | - |
| 1788135064 | 37.78° C | 38% | 1073.1 hPa | 0 mm | - | - | - |
| 1788134761 | 38.33° C | 38% | 1073 hPa | 0 mm | - | - | - |
| 1788134460 | 37.78° C | 39% | 1073 hPa | 0 mm | - | - | - |
| 1788134159 | 38.33° C | 38% | 1073.1 hPa | 0 mm | - | - | - |
| 1788133861 | 38.33° C | 38% | 1073 hPa | 0 mm | - | - | - |
| 1788133554 | 37.78° C | 39% | 1073.3 hPa | 0 mm | - | - | - |
| 1788133249 | 38.89° C | 38% | 1073 hPa | 0 mm | - | - | - |
| 1788132944 | 38.33° C | 38% | 1073.1 hPa | 0 mm | - | - | - |
| 1788132641 | 38.33° C | 37% | 1072.9 hPa | 0 mm | - | - | - |
* Rain latest hour (hover to see other rain measurements)
** Current wind speed in m/s (hover to see current wind gust speed)